Regional Weather Roundup
Issued by NWS Jackson, KY

Home | Current Version | Previous Version | Text Only | Print | Product List | Glossary Off
Versions: 1 2 3 4 5 6 7 8 9 10 11 12 13 14 15 16 17 18 19 20 21 22 23 24 25 26 27

000
ASUS43 KJKL 241210
RWRJKL

EAST KENTUCKY HOURLY WEATHER ROUNDUP
NATIONAL WEATHER SERVICE JACKSON KY
800 AM EDT SAT JUN 24 2017

NOTE: "FAIR" INDICATES FEW OR NO CLOUDS BELOW 12,000 FEET WITH
NO SIGNIFICANT WEATHER AND/OR OBSTRUCTIONS TO VISIBILITY.

* THESE REPORTS ARE NOT UNDER NWS QUALITY CONTROL AND MAY NOT
  REPORT WEATHER SUCH AS PRECIPITATION AND FOG.

KYZ079-080-083-085-087-088-110-112-115-119-120-241300
...EASTERN KENTUCKY...

CITY           SKY/WX    TMP DP  RH WIND       PRES   REMARKS
JACKSON        CLOUDY    66  66 100 NW5       29.97R
6HR MIN TEMP:  65; 6HR MAX TEMP:  67; 6HR PCP:  0.04;

LONDON         CLOUDY    70  67  90 CALM      29.98R
6HR MIN TEMP:  68; 6HR MAX TEMP:  70; 6HR PCP: TRACE;

SOMERSET*      CLOUDY    68  68 100 CALM      30.00R
MONTICELLO*    MOSUNNY   70  68  93 VRB6      30.01R
6HR MIN TEMP:  69; 6HR MAX TEMP:  72; 6HR PCP:  0.03;

WILLIAMSBURG*  PTSUNNY   68  68 100 CALM      29.99R
MIDDLESBORO*   CLOUDY    67  67 100 CALM      30.00R
6HR MIN TEMP:  66; 6HR MAX TEMP:  67; 6HR PCP:  0.16;

HARLAN APT*    CLOUDY    64  63  94 CALM      30.01R
PIKE CO APT*   CLOUDY    65  65 100 CALM      29.98R
BIG SANDY APT* CLOUDY    67  67 100 CALM      29.97R
6HR MIN TEMP:  65; 6HR MAX TEMP:  67;

MOREHEAD APT*  MOSUNNY   66  64  94 CALM      29.98R FOG
$$

KYZ035-036-041-042-044-050-067-078-099-241300
...CENTRAL KENTUCKY...

CITY           SKY/WX    TMP DP  RH WIND       PRES   REMARKS
DANVILLE*      PTSUNNY   64  64 100 NW3       30.01R
LEXINGTON      CLOUDY    65  63  93 CALM      29.99R
6HR MIN TEMP:  64; 6HR MAX TEMP:  69; 6HR PCP:  0.01;

FRANKFORT      SUNNY     67  62  84 NW6       29.97R
6HR MIN TEMP:  63; 6HR MAX TEMP:  69;

LOUISVILLE     PTSUNNY   69  63  81 NW3       29.98R
6HR MIN TEMP:  65; 6HR MAX TEMP:  69;

LEBANON*         N/A    N/A N/A N/A MISG        N/A
GLASGOW*       MOSUNNY  N/A N/A N/A CALM      30.01R
BOWLING GREEN  CLOUDY    70  68  93 NW5       30.01R
6HR MIN TEMP:  67; 6HR MAX TEMP:  73;

$$

KYZ091>093-OHZ055-061-077-WVZ005-015-034-035-042-241300
...SOUTHERN OHIO/WEST VIRGINIA...

CITY           SKY/WX    TMP DP  RH WIND       PRES   REMARKS
COVINGTON      MOSUNNY   65  62  90 W6        29.95R
COLUMBUS       PTSUNNY   66  62  87 SW7       29.89R
DAYTON         MOSUNNY   64  59  83 NW9       29.93R
WILMINGTON     SUNNY     65  64  97 W8        29.93R
HUNTINGTON     CLOUDY    69  66  90 W3        29.94R
CHARLESTON     PTSUNNY   67  65  93 W6        29.95R
PINEVILLE*     CLOUDY    66  64  94 MISG      30.03R
BECKLEY        CLOUDY    63  60  90 W6        30.01R
BLUEFIELD      CLOUDY    62  59  90 W8        30.03R
LOGAN CO APT*  CLOUDY    64  64 100 CALM      29.98R
$$

VAZ002-007-008-TNZ017-027-036-066-071-241300
...SOUTHWEST VIRGINIA/EAST TENNESSEE...

CITY           SKY/WX    TMP DP  RH WIND       PRES   REMARKS
WISE*          CLOUDY    64  64 100 CALM      30.05R
JONESVILLE*    LGT RAIN  66  66 100 CALM      30.02R
ABINGDON*      CLOUDY    67  67 100 CALM      30.02R
BRISTOL        CLOUDY    69  66  90 CALM      30.00R
MORRISTOWN*    CLOUDY    68  68 100 NE3       29.97R FOG
KNOXVILLE      RAIN      69  66  90 W9        29.97R FOG
LAFOLLETTE*    CLOUDY    70  70 100 CALM      30.01R
OAK RIDGE      CLOUDY    69  66  90 CALM      29.98R
CROSSVILLE     CLOUDY    71  69  93 NW6       30.02R
NASHVILLE      PTSUNNY   72  66  81 NW7       30.01R
$$

...KEY TO REMARKS...
VSB - VISIBILITY IN MILES
WCI - WIND CHILL INDEX
HX  - HEAT INDEX

$$




USA.gov is the U.S. government's official web portal to all federal, state and local government web resources and services.